{"data":{"norad_id":54808,"epoch":"2026-09-20T22:00:03.000096Z","epoch_age_seconds":57367,"freshness":"FRESH","line1":"1 54808U 22175BC  26263.91670139 -.00056149  00000+0 -16618-2 0  9997","line2":"2 54808  53.1681 215.4462 0001120  98.3866  11.0491 15.34423793  5742","mean_motion":15.34423793,"eccentricity":0.000112,"inclination_deg":53.1681,"raan_deg":215.4462,"arg_perigee_deg":98.3866,"mean_anomaly_deg":11.0491,"bstar":-0.0016618,"rev_number":574,"period_min":93.846302864257,"perigee_km":461.86635712415,"apogee_km":463.39868949737,"semimajor_km":6840.7695233108,"source":"CELESTRAK","updated_at":"2026-09-21T09:00:33.130974Z"}}